Meriden, CT

4:50 PM EDT on March 28, 2017 (GMT -0400)
Meriden Markham Municipal

Weather History for KMMK - December, 2012

Change the Weather History Date:

Tuesday, December 18, 2012

  Actual Average (KOXC) Record (KOXC)
Temperature  
Mean Temperature 42 °F -  
Max Temperature 48 °F 37 °F 55 °F (2015)
Min Temperature 37 °F 23 °F 10 °F (2002)
Degree Days  
Heating Degree Days 22    
Moisture  
Dew Point 40 °F    
Average Humidity 91    
Maximum Humidity 100    
Minimum Humidity 71    
Precipitation  
Precipitation 0.83 in - - ()
Sea Level Pressure  
Sea Level Pressure 29.52 in    
Wind  
Wind Speed 4 mph (NNW)    
Max Wind Speed 15 mph    
Max Gust Speed 22 mph    
Visibility 7 miles    
Events Rain    
Averages and records for this station are not official NWS values.
T = Trace of Precipitation, MM = Missing Value Source: NWS Daily Summary

Daily Weather History Graph

Daily Weather History Graph

Search for Another Location

Airport or City:

Trip Planner

Search our weather history database for the weather conditions in past years. The results will help you decide how hot, cold, wet, or windy it might be!

Date:

Astronomy

Dec. 18, 2012 Rise Set
Actual Time 7:13 AM EST 4:23 PM EST
Civil Twilight 6:41 AM EST 4:54 PM EST
Nautical Twilight 6:06 AM EST 5:29 PM EST
Astronomical Twilight 5:32 AM EST 6:03 PM EST
Moon 10:47 AM EST (12/18) 10:50 PM EST (12/18)
Length of Visible Light 10h 13m
Length of Day
9h 10m
Waxing Crescent, 34% of the Moon is Illuminated
Dec 18
Waxing Crescent
Dec 20
First Quarter
Dec 28
Full
Jan 4
Last Quarter
Jan 11
New

Hourly Weather History & Observations

Time (EST) Temp. Windchill Dew Point Humidity Pressure Visibility Wind Dir Wind Speed Gust Speed Precip Events Conditions
12:08 AM 37.4 °F 32.1 °F 35.6 °F 93% 29.72 in 3.0 mi North 6.9 mph - 0.00 in Rain Light Rain
12:53 AM 37.0 °F 31.6 °F 36.0 °F 96% 29.70 in 4.0 mi NNW 6.9 mph - 0.10 in Rain Rain
1:53 AM 37.9 °F 32.7 °F 36.0 °F 93% 29.65 in 5.0 mi North 6.9 mph - 0.14 in Rain Heavy Rain
2:29 AM 37.4 °F 31.4 °F 35.6 °F 93% 29.63 in 3.0 mi North 8.1 mph - 0.09 in Rain Heavy Rain
2:53 AM 37.9 °F 34.4 °F 37.0 °F 97% 29.63 in 3.0 mi Variable 4.6 mph - 0.19 in Rain Heavy Rain
3:06 AM 37.4 °F 32.8 °F 37.4 °F 100% 29.60 in 2.5 mi NNE 5.8 mph - 0.08 in Rain Heavy Rain
3:13 AM 37.4 °F 32.1 °F 37.4 °F 100% 29.60 in 4.0 mi North 6.9 mph - 0.09 in Rain Rain
3:44 AM 39.2 °F 35.0 °F 37.4 °F 93% 29.58 in 4.0 mi NW 5.8 mph - 0.16 in Rain Rain
3:53 AM 39.0 °F 34.8 °F 37.9 °F 96% 29.58 in 5.0 mi North 5.8 mph - 0.16 in Rain Light Rain
4:32 AM 39.2 °F 37.0 °F 37.4 °F 93% 29.57 in 5.0 mi WNW 3.5 mph - 0.11 in Rain Rain
4:53 AM 39.0 °F - 37.0 °F 93% 29.57 in 4.0 mi Calm Calm - 0.18 in Rain Heavy Rain
5:30 AM 42.8 °F 40.1 °F 39.2 °F 87% 29.54 in 10.0 mi North 4.6 mph - 0.04 in Rain Light Rain
5:53 AM 42.1 °F 38.4 °F 39.9 °F 92% 29.54 in 10.0 mi North 5.8 mph - 0.04 in   Overcast
6:38 AM 42.8 °F 38.6 °F 39.2 °F 87% 29.52 in 10.0 mi North 6.9 mph - N/A   Overcast
6:48 AM 41.0 °F 39.0 °F 39.2 °F 93% 29.52 in 10.0 mi North 3.5 mph - N/A   Overcast
6:53 AM 41.0 °F 38.0 °F 39.0 °F 93% 29.52 in 10.0 mi North 4.6 mph - N/A   Overcast
7:07 AM 41.0 °F 38.0 °F 39.2 °F 93% 29.52 in 10.0 mi North 4.6 mph - N/A   Overcast
7:31 AM 41.0 °F 39.0 °F 39.2 °F 93% 29.52 in 4.0 mi North 3.5 mph - 0.00 in Rain Light Rain
7:53 AM 41.0 °F - 39.9 °F 96% 29.52 in 6.0 mi Calm Calm - 0.00 in   Overcast
8:09 AM 41.0 °F - 39.2 °F 93% 29.51 in 2.5 mi Calm Calm - 0.00 in Rain Light Rain
8:17 AM 41.0 °F - 39.2 °F 93% 29.51 in 4.0 mi Calm Calm - 0.00 in   Overcast
8:43 AM 41.0 °F 38.0 °F 39.2 °F 93% 29.50 in 4.0 mi NW 4.6 mph - 0.00 in   Overcast
8:53 AM 41.0 °F - 39.0 °F 93% 29.51 in 7.0 mi Calm Calm - 0.00 in   Overcast
9:37 AM 42.8 °F 40.1 °F 39.2 °F 87% 29.51 in 6.0 mi Variable 4.6 mph - N/A   Overcast
9:53 AM 43.0 °F - 41.0 °F 93% 29.51 in 10.0 mi Calm Calm - N/A   Overcast
10:53 AM 44.1 °F - 41.0 °F 89% 29.50 in 10.0 mi Calm Calm - N/A   Overcast
11:53 AM 45.0 °F - 42.1 °F 90% 29.48 in 5.0 mi Calm Calm - N/A   Overcast
12:05 PM 44.6 °F - 42.8 °F 93% 29.47 in 2.0 mi Calm Calm - N/A   Overcast
12:21 PM 44.6 °F - 42.8 °F 93% 29.46 in 4.0 mi Calm Calm - N/A   Overcast
12:53 PM 45.0 °F - 43.0 °F 93% 29.47 in 10.0 mi Calm Calm - N/A   Overcast
1:53 PM 46.0 °F - 43.0 °F 89% 29.46 in 10.0 mi Calm Calm - N/A   Overcast
2:24 PM 46.4 °F - 44.6 °F 93% 29.46 in 10.0 mi Calm Calm - N/A   Overcast
2:39 PM 46.4 °F - 44.6 °F 93% 29.45 in 9.0 mi Calm Calm - N/A   Overcast
2:53 PM 46.9 °F - 44.1 °F 90% 29.46 in 10.0 mi Calm Calm - N/A   Overcast
3:30 PM 48.2 °F - 44.6 °F 87% 29.45 in 10.0 mi Calm Calm - N/A   Overcast
3:53 PM 46.0 °F - 44.1 °F 93% 29.46 in 8.0 mi Calm Calm - N/A   Mostly Cloudy
4:53 PM 45.0 °F - 43.0 °F 93% 29.47 in 7.0 mi Calm Calm - N/A   Overcast
5:53 PM 44.1 °F - 42.1 °F 93% 29.47 in 1.8 mi Calm Calm - N/A   Overcast
6:06 PM 42.8 °F 41.1 °F 42.8 °F 100% 29.46 in 4.0 mi South 3.5 mph - N/A   Overcast
6:53 PM 43.0 °F - 42.1 °F 97% 29.47 in 6.0 mi Calm Calm - N/A   Overcast
7:53 PM 46.9 °F - 43.0 °F 86% 29.47 in 10.0 mi Calm Calm - 0.02 in Rain Light Rain
8:53 PM 44.1 °F 42.5 °F 43.0 °F 96% 29.49 in 10.0 mi West 3.5 mph - 0.00 in Rain Light Rain
9:34 PM 46.4 °F 41.1 °F 41.0 °F 81% 29.50 in 10.0 mi NW 11.5 mph 21.9 mph 0.00 in   Overcast
9:53 PM 46.0 °F 39.6 °F 39.0 °F 76% 29.52 in 10.0 mi WNW 15.0 mph 20.7 mph 0.00 in   Overcast
10:53 PM 44.1 °F 39.0 °F 36.0 °F 73% 29.54 in 10.0 mi NW 9.2 mph 18.4 mph N/A   Overcast
11:53 PM 44.1 °F 38.1 °F 35.1 °F 71% 29.55 in 10.0 mi NW 11.5 mph - N/A   Overcast